This is the latest recevied weather packets stored in our database for station/object NK7E-1. If no packets are shown the sender has not sent any weather packets the latest 10 day(s).
| Time | Temp. | Humidity | Pressure | Rain* | Wind** | Luminosity | Snow |
|---|---|---|---|---|---|---|---|
| 1777960201 | 14.44° C | 88% | 1015.2 hPa | 1.52 mm | - | - | - |
| 1777959601 | 14.44° C | 87% | 1015.4 hPa | 1.52 mm | - | - | - |
| 1777959001 | 14.44° C | 87% | 1015.5 hPa | 1.27 mm | - | - | - |
| 1777958400 | 14.44° C | 87% | 1015.5 hPa | 1.02 mm | - | - | - |
| 1777957801 | 14.44° C | 87% | 1015.5 hPa | 1.02 mm | - | - | - |
| 1777957203 | 14.44° C | 85% | 1015.6 hPa | 0.76 mm | - | - | - |
| 1777956600 | 14.44° C | 84% | 1015.6 hPa | 0.51 mm | - | - | - |
| 1777956002 | 14.44° C | 81% | 1015.6 hPa | 0.25 mm | - | - | - |
| 1777955401 | 14.44° C | 82% | 1015.9 hPa | 0.25 mm | - | - | - |
| 1777954801 | 14.44° C | 79% | 1015.7 hPa | 0.25 mm | - | - | - |
| 1777954200 | 14.44° C | 77% | 1015.8 hPa | 0 mm | - | - | - |
| 1777953603 | 15° C | 76% | 1015.8 hPa | 0 mm | - | - | - |
| 1777953001 | 15° C | 75% | 1015.7 hPa | 0 mm | - | - | - |
| 1777952401 | 15° C | 73% | 1015.5 hPa | 0.25 mm | - | - | - |
| 1777951800 | 15° C | 74% | 1015 hPa | 0.25 mm | - | - | - |
| 1777951201 | 15° C | 73% | 1014.9 hPa | 0.25 mm | - | - | - |
| 1777950601 | 15° C | 73% | 1014.9 hPa | 0.51 mm | - | - | - |
| 1777950001 | 15° C | 72% | 1014.6 hPa | 0.51 mm | - | - | - |
| 1777949402 | 15.56° C | 69% | 1015 hPa | 0.76 mm | - | - | - |
| 1777948800 | 15.56° C | 71% | 1015.2 hPa | 0.51 mm | - | - | - |
| 1777948202 | 16.11° C | 62% | 1015.2 hPa | 0.51 mm | - | - | - |
| 1777947601 | 16.67° C | 58% | 1014.9 hPa | 0.51 mm | - | - | - |
| 1777947001 | 16.67° C | 60% | 1014.9 hPa | 0.25 mm | - | - | - |
| 1777946402 | 16.67° C | 58% | 1014.7 hPa | 0.25 mm | - | - | - |
| 1777945801 | 17.22° C | 60% | 1015 hPa | 0 mm | - | - | - |
* Rain latest hour (hover to see other rain measurements)
** Current wind speed in m/s (hover to see current wind gust speed)